Puyallup, WA
on Thursday, January 24, 2013

Thursday
Previous Day Next Day
Daily Summary
 ActualAverage (KSEA)Record (KSEA)
Temperature
Mean Temperature °F 43°F  
Max Temperature 44°F 48°F 58°F (1995)
Min Temperature 28°F 37°F 10°F (1950)
Degree Days
Heating Degree Days 29 22  
Month to date heating degree days 556  
Since 1 July heating degree days 2494  
Cooling Degree Days 0 0  
Month to date cooling degree days 0  
Year to date cooling degree days 0  
Moisture
Dew Point 35°F   
Average Humidity 91    
Maximum Humidity 100    
Minimum Humidity 61    
Precipitation
Precipitation 0.11 in 0.16 in 1.36 in (1984)
Month to date precipitation 4.45  
Year to date precipitation 4.45  
Snow
Snow 0.00 in in 3.50 in (1972)
Month to date snowfall  
Since 1 July snowfall  
Snow Depth in   
Wind
Wind Speed 0 mph   
Max Wind Speed 5 mph   
Max Gust Speed mph   
Visibility 9 miles   
Events Rain   

Key: T is trace of precipitation, MM is missing value
Source: NWS Daily Summary
Time(PST)TemperatureDew PointHumidity Pressure Visibility Wind DirectionWind SpeedGust SpeedPrecipitationEvents Conditions
12:15 AM 41.0°F 39.2°F 93% 30.16 in 10.0 miles SSW 4.6 mph - N/A   Overcast
12:35 AM 41.0°F 39.2°F 93% 30.16 in 10.0 miles Calm Calm - N/A   Mostly Cloudy
12:55 AM 39.2°F 37.4°F 93% 30.17 in 10.0 miles Calm Calm - N/A   Partly Cloudy
1:15 AM 39.2°F 37.4°F 93% 30.18 in 10.0 miles Calm Calm - N/A   Clear
1:35 AM 39.2°F 37.4°F 93% 30.19 in 10.0 miles Calm Calm - N/A   Clear
1:55 AM 37.4°F 37.4°F 100% 30.19 in 10.0 miles Calm Calm - N/A   Clear
2:15 AM 37.4°F 35.6°F 93% 30.19 in 10.0 miles Calm Calm - N/A   Scattered Clouds
2:35 AM 37.4°F 37.4°F 100% 30.20 in 10.0 miles Calm Calm - N/A   Partly Cloudy
2:55 AM 32.0°F 32.0°F 100% 30.20 in 10.0 miles Calm Calm - N/A   Clear
3:15 AM 32.0°F 32.0°F 100% 30.20 in 10.0 miles Calm Calm - N/A   Partly Cloudy
3:35 AM 32.0°F 32.0°F 100% 30.20 in 10.0 miles Calm Calm - N/A   Clear
3:55 AM 32.0°F 32.0°F 100% 30.20 in 10.0 miles Calm Calm - N/A   Clear
4:15 AM 32.0°F 32.0°F 100% 30.19 in 10.0 miles Calm Calm - N/A   Partly Cloudy
4:35 AM 32.0°F 32.0°F 100% 30.19 in 10.0 miles Calm Calm - N/A   Scattered Clouds
4:55 AM 32.0°F 32.0°F 100% 30.19 in 3.0 miles Calm Calm - N/A   Scattered Clouds
5:15 AM 30.2°F 30.2°F 100% 30.20 in 8.0 miles Calm Calm - N/A   Partly Cloudy
5:35 AM 32.0°F 32.0°F 100% 30.20 in 10.0 miles Calm Calm - N/A   Partly Cloudy
5:55 AM 30.2°F 30.2°F 100% 30.21 in 10.0 miles Calm Calm - N/A   Scattered Clouds
6:15 AM 30.2°F 30.2°F 100% 30.21 in 10.0 miles Calm Calm - N/A   Partly Cloudy
6:35 AM 30.2°F 30.2°F 100% 30.20 in 10.0 miles Calm Calm - N/A   Clear
6:55 AM 28.4°F 28.4°F 100% 30.19 in 10.0 miles Calm Calm - N/A   Clear
7:15 AM 30.2°F 30.2°F 100% 30.19 in 10.0 miles Calm Calm - N/A   Clear
7:35 AM 30.2°F 30.2°F 100% 30.19 in 10.0 miles Calm Calm - N/A   Clear
7:55 AM 28.4°F 28.4°F 100% 30.19 in 10.0 miles Calm Calm - N/A   Clear
8:15 AM 30.2°F 30.2°F 100% 30.19 in 10.0 miles Calm Calm - N/A   Clear
8:35 AM 32.0°F 32.0°F 100% 30.18 in 10.0 miles Calm Calm - N/A   Clear
8:55 AM 32.0°F 32.0°F 100% 30.18 in 10.0 miles Calm Calm - N/A   Clear
9:15 AM 33.8°F 33.8°F 100% 30.18 in 10.0 miles Calm Calm - N/A   Clear
9:35 AM 37.4°F 35.6°F 93% 30.18 in 10.0 miles Calm Calm - N/A   Clear
9:55 AM 39.2°F 35.6°F 87% 30.18 in 10.0 miles Calm Calm - N/A   Clear
10:15 AM 41.0°F 37.4°F 87% 30.17 in 10.0 miles Calm Calm - N/A   Clear
10:35 AM 41.0°F 37.4°F 87% 30.17 in 10.0 miles Calm Calm - N/A   Clear
10:55 AM 41.0°F 35.6°F 81% 30.16 in 10.0 miles Calm Calm - N/A   Clear
11:15 AM 44.6°F 35.6°F 71% 30.15 in 10.0 miles Calm Calm - N/A   Clear
11:35 AM 44.6°F 35.6°F 71% 30.14 in 10.0 miles Calm Calm - N/A   Clear
11:55 AM 44.6°F 35.6°F 71% 30.15 in 10.0 miles Calm Calm - N/A   Clear
12:15 PM 44.6°F 33.8°F 66% 30.14 in 10.0 miles Calm Calm - N/A   Clear
12:35 PM 44.6°F 32.0°F 61% 30.13 in 10.0 miles Calm Calm - N/A   Clear
12:55 PM 44.6°F 32.0°F 61% 30.11 in 10.0 miles Calm Calm - N/A   Partly Cloudy
1:15 PM 44.6°F 35.6°F 71% 30.11 in 10.0 miles Calm Calm - N/A   Clear
1:35 PM 44.6°F 33.8°F 66% 30.10 in 10.0 miles Calm Calm - N/A   Clear
1:55 PM 44.6°F 32.0°F 61% 30.10 in 10.0 miles Calm Calm - N/A   Clear
2:15 PM 44.6°F 33.8°F 66% 30.09 in 10.0 miles Calm Calm - N/A   Clear
2:35 PM 44.6°F 35.6°F 71% 30.08 in 10.0 miles Calm Calm - N/A   Partly Cloudy
2:55 PM 44.6°F 35.6°F 71% 30.07 in 10.0 miles Calm Calm - N/A   Clear
3:15 PM 44.6°F 35.6°F 71% 30.07 in 10.0 miles Calm Calm - N/A   Partly Cloudy
3:35 PM 44.6°F 35.6°F 71% 30.07 in 10.0 miles Calm Calm - N/A   Partly Cloudy
3:55 PM 44.6°F 35.6°F 71% 30.07 in 10.0 miles Calm Calm - N/A   Clear
4:15 PM 42.8°F 37.4°F 81% 30.08 in 10.0 miles Calm Calm - N/A   Partly Cloudy
4:35 PM 42.8°F 35.6°F 76% 30.07 in 10.0 miles Calm Calm - N/A   Scattered Clouds
4:55 PM 42.8°F 35.6°F 76% 30.08 in 10.0 miles Calm Calm - N/A   Partly Cloudy
5:15 PM 41.0°F 37.4°F 87% 30.10 in 10.0 miles Calm Calm - N/A Rain Light Rain
5:35 PM 41.0°F 39.2°F 93% 30.11 in 6.0 miles Calm Calm - N/A Rain Light Rain
5:55 PM 39.2°F 39.2°F 100% 30.10 in 5.0 miles Calm Calm - 0.03 in Rain Light Rain
6:15 PM 39.2°F 39.2°F 100% 30.09 in 5.0 miles Calm Calm - 0.01 in Rain Light Rain
6:35 PM 39.2°F 39.2°F 100% 30.09 in 5.0 miles Calm Calm - 0.02 in Rain Light Rain
6:55 PM 39.2°F 39.2°F 100% 30.09 in 4.0 miles Calm Calm - 0.03 in Rain Light Rain
7:15 PM 39.2°F 39.2°F 100% 30.08 in 5.0 miles Calm Calm - 0.01 in Rain Light Rain
7:35 PM 39.2°F 39.2°F 100% 30.08 in 7.0 miles Calm Calm - 0.02 in Rain Light Rain
7:55 PM 39.2°F 39.2°F 100% 30.08 in 7.0 miles Calm Calm - 0.03 in Rain Light Rain
8:15 PM 39.2°F 39.2°F 100% 30.08 in 5.0 miles Calm Calm - N/A Rain Light Rain
8:35 PM 39.2°F 39.2°F 100% 30.07 in 7.0 miles Calm Calm - 0.01 in Rain Light Rain
8:55 PM 39.2°F 39.2°F 100% 30.07 in 10.0 miles Calm Calm - 0.01 in Rain Light Rain
9:15 PM 39.2°F 39.2°F 100% 30.06 in 8.0 miles Calm Calm - N/A Rain Light Rain
9:35 PM 39.2°F 39.2°F 100% 30.06 in 7.0 miles Calm Calm - N/A Rain Light Rain
9:55 PM 39.2°F 39.2°F 100% 30.06 in 5.0 miles Calm Calm - 0.01 in Rain Light Rain
10:15 PM 39.2°F 39.2°F 100% 30.06 in 5.0 miles Calm Calm - N/A Rain Light Rain
10:35 PM 39.2°F 39.2°F 100% 30.06 in 5.0 miles Calm Calm - N/A   Overcast
10:55 PM 39.2°F 39.2°F 100% 30.05 in 5.0 miles Calm Calm - N/A Rain Light Rain
11:15 PM 39.2°F 39.2°F 100% 30.05 in 6.0 miles Calm Calm - N/A   Overcast
11:35 PM 39.2°F 39.2°F 100% 30.05 in 9.0 miles Calm Calm - N/A   Overcast
11:55 PM 41.0°F 41.0°F 100% 30.05 in 10.0 miles Calm Calm - N/A   Overcast
Moon Phase
Jan. 24 Jan. 26 Feb. 03 Feb. 10 Feb. 17
Sunrise:07:43 AM (PST) Moon Rise:03:05 PM (PST)1/24
Sunset:05:00 PM (PST) Moon Set:05:47 AM (PST)1/24

Copyright © 2014 The Weather Underground, Inc.